Weather History for Wright-Patt AFB, OH

Change the Weather History Date:

Saturday, October 27, 2012

  Actual Average Record
Temperature  
Mean Temperature 46 °F -  
Max Temperature 51 °F 59 °F 78 °F (2014)
Min Temperature 42 °F 39 °F 28 °F (1999)
Degree Days  
Heating Degree Days 18    
Moisture  
Dew Point 40 °F    
Average Humidity 83    
Maximum Humidity 94    
Minimum Humidity 62    
Precipitation  
Precipitation 0.07 in - - ()
Sea Level Pressure  
Sea Level Pressure 30.12 in    
Wind  
Wind Speed 11 mph (North)    
Max Wind Speed 16 mph    
Max Gust Speed 21 mph    
Visibility 9 miles    
Events Rain    
Averages and records for this station are not official NWS values.
T = Trace of Precipitation, MM = Missing Value Source: NWS Daily Summary

Daily Weather History Graph

Daily Weather History Graph

Search for Another Location

Airport:

Trip Planner

Search our weather history database for the weather conditions in past years. The results will help you decide how hot, cold, wet, or windy it might be!

Date:

Astronomy

Oct. 27, 2012 Rise Set
Actual Time 7:59 AM EDT 6:39 PM EDT
Civil Twilight 7:32 AM EDT 7:07 PM EDT
Nautical Twilight 7:00 AM EDT 7:38 PM EDT
Astronomical Twilight 6:29 AM EDT 8:10 PM EDT
Moon 5:24 PM EDT (10/27) 5:54 AM EDT (10/27)
Length of Visible Light 11h 35m
Length of Day
10h 39m
Waxing Gibbous, 96% of the Moon is Illuminated
Oct 27
Waxing Gibbous
Oct 29
Full
Nov 6
Last Quarter
Nov 13
New
Nov 20
First Quarter

Hourly Weather History & Observations

Time (EDT) Temp. Windchill Dew Point Humidity Pressure Visibility Wind Dir Wind Speed Gust Speed Precip Events Conditions
12:19 AM 44.6 °F 39.2 °F 42.8 °F 93% 30.14 in 10.0 mi NNW 10.4 mph - N/A Rain Light Rain
12:55 AM 44.4 °F 38.6 °F 42.8 °F 94% 30.13 in 10.0 mi North 11.5 mph 17.3 mph 0.02 in Rain Light Rain
1:33 AM 44.6 °F 38.4 °F 42.8 °F 93% 30.11 in 6.0 mi North 12.7 mph - N/A Rain Rain
1:55 AM 44.6 °F 38.8 °F 42.8 °F 93% 30.11 in 10.0 mi North 11.5 mph - 0.04 in Rain Light Rain
2:31 AM 44.6 °F 39.7 °F 42.8 °F 93% 30.11 in 10.0 mi North 9.2 mph - N/A Rain Light Rain
2:37 AM 44.6 °F 40.7 °F 42.8 °F 93% 30.11 in 10.0 mi North 6.9 mph - N/A   Light Drizzle
2:55 AM 45.5 °F 40.8 °F 43.0 °F 91% 30.10 in 10.0 mi North 9.2 mph - 0.00 in   Light Drizzle
3:55 AM 45.3 °F 40.1 °F 42.8 °F 91% 30.09 in 10.0 mi North 10.4 mph - 0.01 in   Drizzle
4:34 AM 44.6 °F 39.2 °F 42.8 °F 93% 30.08 in 10.0 mi North 10.4 mph - N/A   Overcast
4:55 AM 45.0 °F 39.7 °F 41.7 °F 88% 30.08 in 10.0 mi North 10.4 mph - 0.00 in   Overcast
5:03 AM 44.6 °F 38.8 °F 41.0 °F 87% 30.07 in 10.0 mi North 11.5 mph - N/A   Light Drizzle
5:14 AM 44.6 °F 39.2 °F 41.0 °F 87% 30.07 in 10.0 mi NNW 10.4 mph - N/A   Overcast
5:28 AM 44.6 °F 38.8 °F 42.8 °F 93% 30.08 in 10.0 mi NNW 11.5 mph 18.4 mph N/A   Overcast
5:45 AM 44.6 °F 38.1 °F 41.0 °F 87% 30.09 in 10.0 mi NNW 13.8 mph - N/A   Light Drizzle
5:55 AM 44.1 °F 37.4 °F 41.0 °F 89% 30.17 in 7.0 mi NNW 13.8 mph - 0.00 in   Light Drizzle
6:55 AM 43.2 °F 36.6 °F 40.3 °F 90% 30.10 in 8.0 mi North 12.7 mph 20.7 mph 0.00 in   Light Drizzle
7:12 AM 42.8 °F 35.8 °F 41.0 °F 93% 30.11 in 7.0 mi North 13.8 mph 19.6 mph N/A   Light Drizzle
7:55 AM 42.6 °F 35.9 °F 40.3 °F 91% 30.12 in 10.0 mi NNW 12.7 mph 18.4 mph 0.00 in   Light Drizzle
8:03 AM 42.8 °F 37.0 °F 41.0 °F 93% 30.13 in 7.0 mi North 10.4 mph - N/A   Mostly Cloudy
8:14 AM 42.8 °F 37.0 °F 41.0 °F 93% 30.13 in 10.0 mi North 10.4 mph 18.4 mph N/A   Mostly Cloudy
8:33 AM 42.8 °F 38.0 °F 41.0 °F 93% 30.13 in 7.0 mi NNW 8.1 mph - N/A   Overcast
8:55 AM 42.8 °F 36.2 °F 40.5 °F 91% 30.14 in 6.0 mi North 12.7 mph 19.6 mph N/A   Light Drizzle
9:16 AM 42.8 °F 36.6 °F 41.0 °F 93% 30.15 in 6.0 mi North 11.5 mph 19.6 mph N/A   Overcast
9:33 AM 42.8 °F 37.5 °F 41.0 °F 93% 30.16 in 6.0 mi NNW 9.2 mph - N/A   Overcast
9:38 AM 42.8 °F 37.0 °F 41.0 °F 93% 30.15 in 6.0 mi NNW 10.4 mph - N/A   Light Drizzle
9:49 AM 42.8 °F 36.6 °F 39.2 °F 87% 30.16 in 6.0 mi NNW 11.5 mph - N/A   Light Drizzle
9:55 AM 42.6 °F 35.9 °F 39.2 °F 88% 30.16 in 6.0 mi NNW 12.7 mph - 0.00 in   Light Drizzle
10:01 AM 42.8 °F 37.0 °F 39.2 °F 87% 30.16 in 7.0 mi NNW 10.4 mph - N/A   Overcast
10:55 AM 42.8 °F 36.6 °F 39.0 °F 86% 30.16 in 10.0 mi North 11.5 mph - 0.00 in   Mostly Cloudy
11:41 AM 46.4 °F 39.8 °F 41.0 °F 81% 30.15 in 10.0 mi North 16.1 mph - N/A   Mostly Cloudy
11:55 AM 45.5 °F 39.9 °F 39.6 °F 80% 30.16 in 10.0 mi North 11.5 mph - N/A   Mostly Cloudy
12:55 PM 48.2 °F - 40.5 °F 75% 30.14 in 10.0 mi NNE 13.8 mph 19.6 mph N/A   Mostly Cloudy
1:10 PM 50.0 °F - 41.0 °F 71% 30.14 in 10.0 mi NNE 13.8 mph 18.4 mph N/A   Mostly Cloudy
1:46 PM 50.0 °F - 41.0 °F 71% 30.12 in 10.0 mi NNE 13.8 mph - N/A   Mostly Cloudy
1:55 PM 51.1 °F - 40.6 °F 67% 30.11 in 10.0 mi NNE 12.7 mph - N/A   Mostly Cloudy
2:55 PM 51.3 °F - 39.7 °F 65% 30.09 in 10.0 mi North 9.2 mph - N/A   Mostly Cloudy
3:55 PM 50.5 °F - 39.0 °F 65% 30.09 in 10.0 mi North 15.0 mph - N/A   Overcast
4:37 PM 50.0 °F - 37.4 °F 62% 30.09 in 10.0 mi North 11.5 mph - N/A   Overcast
4:55 PM 50.7 °F - 38.7 °F 63% 30.10 in 10.0 mi NNE 11.5 mph - N/A   Overcast
5:55 PM 50.0 °F - 37.6 °F 62% 30.11 in 10.0 mi NE 15.0 mph - N/A   Mostly Cloudy
6:55 PM 49.5 °F - 37.0 °F 62% 30.12 in 10.0 mi NNE 10.4 mph - N/A   Overcast
7:55 PM 48.9 °F - 37.8 °F 65% 30.14 in 10.0 mi NNE 8.1 mph - N/A   Overcast
8:55 PM 48.4 °F - 36.7 °F 64% 30.14 in 10.0 mi NNE 9.2 mph - N/A   Overcast
9:55 PM 45.7 °F 41.5 °F 36.1 °F 69% 30.14 in 10.0 mi NNE 8.1 mph - N/A   Scattered Clouds
10:55 PM 44.2 °F 41.8 °F 35.8 °F 72% 30.14 in 10.0 mi North 4.6 mph - N/A   Mostly Cloudy
11:55 PM 43.0 °F 38.8 °F 35.8 °F 76% 30.14 in 10.0 mi North 6.9 mph - N/A   Clear